EW4964 Weather Reports


time (UTC)temp
F
wind
direction
speed
knots
gust
knots
rain 1hr
in
rain 24hr
in
rain mn
in
humidity
%
barometer
mb
20260507021505 49 45 0.9 1.7 0.00 0.00 0.00 58 1011.6
20260507020004 49 45 0.9 3.5 0.00 0.00 0.00 59 1011.6
20260507014505 49 19 0.9 3.5 0.00 0.00 0.00 59 1011.2
20260507013007 49 5 1.7 2.6 0.00 0.00 0.00 59 1011.4
20260507011504 49 355 0.9 3.5 0.00 0.00 0.00 57 1011.4
20260507010005 50 338 1.7 3.5 0.00 0.00 0.00 57 1011.0
20260507004504 50 284 1.7 3.5 0.00 0.00 0.00 57 1011.1
20260507003005 50 327 1.7 3.5 0.00 0.00 0.00 59 1011.0
20260507001504 50 90 2.6 6.1 0.00 0.00 0.00 58 1010.8
20260507000004 50 90 3.5 7.8 0.00 0.00 0.00 59 1010.6
20260506234505 50 90 3.5 7.0 0.00 0.00 0.00 60 1010.3
20260506233005 51 66 4.3 10.4 0.00 0.00 0.00 59 1010.2
20260506231507 51 45 4.3 9.6 0.00 0.00 0.00 57 1010.1
20260506230008 51 45 5.2 10.4 0.00 0.00 0.00 54 1010.3
20260506224507 51 65 7.0 13.9 0.00 0.00 0.00 52 1009.8
20260506223008 53 9 3.5 7.0 0.00 0.00 0.00 47 1009.9
20260506221508 55 277 3.5 7.0 0.00 0.00 0.00 44 1009.5
20260506220010 55 253 2.6 5.2 0.00 0.00 0.00 43 1009.5
20260506214507 56 185 3.5 7.0 0.00 0.00 0.00 42 1009.4
20260506213007 56 217 3.5 7.0 0.00 0.00 0.00 42 1009.2
20260506210008 55 181 3.5 6.1 0.00 0.00 0.00 43 1009.0
20260506204507 55 175 1.7 3.5 0.00 0.00 0.00 42 1009.1
20260506203008 56 153 0.9 3.5 0.00 0.00 0.00 41 1009.2
20260506201507 56 258 1.7 3.5 0.00 0.00 0.00 41 1009.3
20260506200008 57 148 1.7 4.3 0.00 0.00 0.00 39 1009.2
20260506194507 57 165 2.6 4.3 0.00 0.00 0.00 39 1009.0
20260506193008 58 225 1.7 3.5 0.00 0.00 0.00 38 1009.2
20260506190008 59 248 2.6 6.1 0.00 0.00 0.00 37 1008.8
20260506181508 60 225 4.3 8.7 0.00 0.00 0.00 34 1008.7
20260506180007 61 214 5.2 11.3 0.00 0.00 0.00 33 1008.7
20260506174507 62 270 5.2 12.2 0.00 0.00 0.00 31 1008.6
20260506173007 63 220 6.1 13.9 0.00 0.00 0.00 31 1008.7
20260506171508 64 208 6.1 13.0 0.00 0.00 0.00 28 1008.7
20260506170007 66 229 7.0 13.0 0.00 0.00 0.00 27 1008.6
20260506164507 69 174 6.1 10.4 0.00 0.00 0.00 26 1008.6
20260506163007 68 191 5.2 9.6 0.00 0.00 0.00 27 1008.9
20260506161507 67 217 7.8 14.8 0.00 0.00 0.00 27 1009.0
20260506160006 67 191 7.8 12.2 0.00 0.00 0.00 27 1009.0
20260506154507 67 188 6.1 13.0 0.00 0.00 0.00 27 1009.4
20260506153007 66 207 7.0 12.2 0.00 0.00 0.00 28 1009.5
20260506151507 69 164 6.1 13.0 0.00 0.00 0.00 27 1009.4
20260506150007 69 215 6.1 9.6 0.00 0.00 0.00 29 1009.7
20260506144507 67 213 6.1 9.6 0.00 0.00 0.00 28 1010.0
20260506143007 66 193 6.1 12.2 0.00 0.00 0.00 28 1010.2
20260506141506 67 174 5.2 10.4 0.00 0.00 0.00 29 1010.2
20260506134506 65 256 6.1 16.5 0.00 0.00 0.00 28 1010.3
20260506133006 66 196 4.3 7.0 0.00 0.00 0.00 27 1010.6
20260506131507 66 237 5.2 9.6 0.00 0.00 0.00 27 1010.6
20260506130006 66 249 5.2 9.6 0.00 0.00 0.00 27 1010.9
20260506124507 64 228 4.3 9.6 0.00 0.00 0.00 28 1011.1
20260506123007 65 276 3.5 5.2 0.00 0.00 0.00 28 1011.2
20260506121507 66 286 3.5 8.7 0.00 0.00 0.00 28 1011.2
20260506120006 67 248 4.3 8.7 0.00 0.00 0.00 27 1011.4
20260506114506 67 256 3.5 7.8 0.00 0.00 0.00 27 1011.3
20260506113006 67 299 2.6 5.2 0.00 0.00 0.00 29 1011.4
20260506111506 67 296 3.5 8.7 0.00 0.00 0.00 27 1011.6
20260506104506 67 269 3.5 7.0 0.00 0.00 0.00 28 1011.9
20260506101506 65 276 4.3 7.8 0.00 0.00 0.00 31 1011.9
20260506100006 64 291 3.5 7.0 0.00 0.00 0.00 31 1012.0
20260506094506 64 272 3.5 9.6 0.00 0.00 0.00 31 1012.1
20260506091506 63 270 4.3 8.7 0.00 0.00 0.00 32 1011.9
20260506090006 61 277 3.5 7.8 0.00 0.00 0.00 35 1011.9
20260506084506 60 343 5.2 9.6 0.00 0.00 0.00 37 1012.1
20260506073006 56 292 4.3 9.6 0.00 0.00 0.00 41 1011.8
20260506071505 57 335 4.3 8.7 0.00 0.00 0.00 42 1011.6
20260506061505 54 328 3.5 12.2 0.00 0.00 0.00 46 1011.6
20260506044505 51 339 4.3 7.0 0.00 0.00 0.00 72 1011.1
20260506043005 50 342 2.6 5.2 0.00 0.00 0.00 72 1010.8
20260506040006 50 1 2.6 4.3 0.00 0.00 0.00 69 1010.7
20260506031505 51 1 1.7 6.1 0.00 0.00 0.00 64 1010.7
20260506030005 51 1 1.7 3.5 0.00 0.00 0.00 62 1010.6
20260506024505 51 1 0.9 2.6 0.00 0.00 0.00 61 1010.5
20260506023004 51 1 0.9 1.7 0.00 0.00 0.00 61 1010.4